This is the latest recevied weather packets stored in our database for station/object W0SS-13. If no packets are shown the sender has not sent any weather packets the latest 10 day(s).
| Time | Temp. | Humidity | Pressure | Rain* | Wind** | Luminosity | Snow |
|---|---|---|---|---|---|---|---|
| 1778016358 | 10.56° C | 79% | 1012.9 hPa | 0 mm | - | 168 W/m² | - |
| 1778016056 | 10.56° C | 78% | 1013 hPa | 0 mm | - | 165 W/m² | - |
| 1778015753 | 10.56° C | 78% | 1012.7 hPa | 0 mm | - | 216 W/m² | - |
| 1778015450 | 10.56° C | 78% | 1012.9 hPa | 0 mm | - | 213 W/m² | - |
| 1778015146 | 10.56° C | 78% | 1013.1 hPa | 0 mm | - | 218 W/m² | - |
| 1778014843 | 10° C | 79% | 1013.2 hPa | 0 mm | - | 279 W/m² | - |
| 1778014541 | 10° C | 78% | 1013.1 hPa | 0 mm | - | 157 W/m² | - |
| 1778014238 | 10° C | 79% | 1013.2 hPa | 0 mm | - | 209 W/m² | - |
| 1778013936 | 10° C | 79% | 1013.1 hPa | 0 mm | - | 208 W/m² | - |
| 1778013633 | 9.44° C | 78% | 1012.9 hPa | 0 mm | - | 178 W/m² | - |
| 1778013330 | 9.44° C | 79% | 1012.8 hPa | 0 mm | - | 107 W/m² | - |
| 1778013027 | 9.44° C | 80% | 1013.3 hPa | 0 mm | - | 98 W/m² | - |
| 1778012723 | 9.44° C | 82% | 1013.5 hPa | 0 mm | - | 99 W/m² | - |
| 1778012419 | 9.44° C | 82% | 1013.2 hPa | 0 mm | - | 103 W/m² | - |
| 1778012116 | 10° C | 82% | 1013.2 hPa | 0 mm | - | 113 W/m² | - |
| 1778011813 | 10° C | 81% | 1013.2 hPa | 0 mm | - | 176 W/m² | - |
| 1778011511 | 9.44° C | 79% | 1012.9 hPa | 0 mm | - | 205 W/m² | - |
| 1778011208 | 9.44° C | 79% | 1013.1 hPa | 0 mm | - | 163 W/m² | - |
| 1778010904 | 9.44° C | 81% | 1013.2 hPa | 0 mm | - | 184 W/m² | - |
| 1778010601 | 9.44° C | 82% | 1013.3 hPa | 0 mm | - | 157 W/m² | - |
| 1778010299 | 9.44° C | 81% | 1013.4 hPa | 0 mm | - | 157 W/m² | - |
| 1778009999 | 9.44° C | 82% | 1013.3 hPa | 0 mm | - | 109 W/m² | - |
| 1778009696 | 9.44° C | 81% | 1013.3 hPa | 0 mm | - | 126 W/m² | - |
| 1778009393 | 9.44° C | 81% | 1012.9 hPa | 0 mm | - | 147 W/m² | - |
| 1778009091 | 8.89° C | 81% | 1012.9 hPa | 0 mm | - | 203 W/m² | - |
* Rain latest hour (hover to see other rain measurements)
** Current wind speed in m/s (hover to see current wind gust speed)